www.pogodaiklimat.ru

Погода и климат >> Архив погоды >> Россия >> Краснодарский край >> Тамань


ПОГОДА в Тамани

  • Прогноз погоды в Тамани
  • Монитор погоды в Тамани
  • Климат города

АРХИВ ПОГОДЫ в Тамани

Время (UTC), дата Ветер
(напр.,м/с)
 
Видим.   Явления Облачность Т
(С)
Тd
(С)
f
(%)
Тe
(С)
Тes
(С)
Комфортность P
(гПа)
Po
(гПа)
Тmin
(С)
Tmax
(С)
R
(мм)
R24
(мм)
S
(см)
00 14.06 ЮЗ 2 10 км ясно +16.7 +12.7 77 +17 +17 1006.7 1004.8
03 14.06 штиль 0 20 км ясно +18.1 +14.5 79 +18 +19 1007.0 1005.1 +15.7
06 14.06 С 1 20 км ясно +26.9 +17.4 56 +31 +43 душно 1007.1 1005.3
09 14.06 СВ 3 20 км 1/0
[Cs]
+28.2 +15.2 45 +31 +46 душно 1006.6 1004.8
12 14.06 СВ 3 20 км 1/0
[Cs]
+29.5 +16.0 44 +33 +44 душно 1006.1 1004.3
15 14.06 СВ 3 20 км ясно +28.5 +16.7 49 +32 +35 душно 1005.2 1003.4 +29.6
18 14.06 В 3 10 км ясно +25.4 +15.4 54 +28 +28 жарко 1004.7 1002.9
21 14.06 СВ 1 10 км ясно +23.6 +14.9 58 +26 +26 жарко 1005.0 1003.2
00 15.06 В 1 10 км ясно +22.3 +16.8 71 +27 +27 душно 1004.3 1002.5
03 15.06 В 1 20 км ясно +23.4 +13.5 54 +27 +28 душно 1004.2 1002.4 +22.1
06 15.06 Ю 4 20 км 1/0
[Ci fib]
+27.1 +13.5 43 +29 +36 жарко 1004.2 1003.1
09 15.06 ЮВ 4 20 км 8/0
[Ac trans Ci sp]
+26.0 +19.7 68 +32 +40 очень
душно
1005.7 1003.9
12 15.06 Ю 3 20 км 8/3 1000 м
[Sc Ac trans Ci fib]
+27.7 +17.3 53 +32 +37 очень
душно
1005.8 1004.0
15 15.06 С 1 20 км 9/5 1000 м
[Sc Ac trans]
+26.4 +19.4 65 +32 +33 очень
душно
1005.5 1003.7 +28.0
18 15.06 ЮЗ 2 10 км 10/9 600 м
[Frnb]
+23.8 +18.6 73 +28 +28 душно 1006.6 1004.8
21 15.06 ЮЗ 1 10 км 9/6 1000 м
[Sc Ac lent]
+22.2 +19.2 83 +28 +28 душно 1006.6 1004.7
00 16.06 ЮЗ 1 10 км 6/6 1000 м
[Sc]
+21.3 +17.4 78 +25 +25 комфорт 1006.6 1004.7
03 16.06 З 1 20 км {дождь} 10/8 600 м
[St As trans]
+21.7 +18.7 83 +27 +27 душно 1007.3 1005.5 +20.7
06 16.06 З 1 20 км {гроза, дождь} 10/6 600 м
[Sc As op]
+22.4 +19.3 83 +28 +29 душно 1008.6 1006.8
09 16.06 ЮВ 1 20 км {дождь} 10/8 600 м
[Sc As op]
+22.7 +19.2 81 +29 +30 очень
душно
1009.3 1007.5
12 16.06 Ю 2 20 км 10/10 600 м
[Sc]
+24.1 +18.3 70 +29 +29 душно 1009.5 1007.6
15 16.06 ЮВ 1 20 км {дождь} 10/6 1000 м
[Sc As op]
+24.4 +16.3 61 +28 +28 душно 1008.8 1007.0 +25.1 2
18 16.06 Ю 1 10 км {дождь} 10/8 1000 м
[Sc As op]
+22.1 +16.7 71 +26 +26 душно 1008.9 1007.1
21 16.06 СВ 2 10 км слабый дождь 10/0
[As op]
+23.0 +18.8 77 +29 +29 очень
душно
1008.9 1007.0
00 17.06 С 1 10 км слабый дождь 10/0
[As op]
+22.4 +20.4 88 +29 +29 очень
душно
1008.3 1006.4
03 17.06 С 1 20 км {дождь} 10/9 1000 м
[Sc As op]
+22.9 +20.4 86 +30 +30 очень
душно
1007.2 1005.3 +21.6
06 17.06 В 3 20 км {дождь} 10/10 1000 м
[Sc]
+22.7 +19.5 82 +29 +29 очень
душно
1007.5 1005.7
09 17.06 В 4 20 км 10/10 600 м
[Sc]
+22.4 +18.9 81 +28 +28 душно 1008.6 1006.8
12 17.06 В 4 20 км 10/0
[Ac und]
+22.1 +18.1 78 +27 +30 душно 1008.4 1006.5
15 17.06 В 6-10
{12}
20 км 10/6 1000 м
[Sc Ac trans Ci fib]
+24.4 +15.0 56 +27 +27 жарко 1007.9 1006.0 +24.8
18 17.06 В 2
{10}
10 км 10/6 1000 м
[Sc Ac trans]
+23.0 +14.3 58 +27 +27 душно 1008.5 1006.6
21 17.06 В 2 10 км 9/9 1000 м
[Sc]
+22.6 +14.0 58 +26 +26 жарко 1008.1 1006.2
00 18.06 В 3 10 км 9/9 1000 м
[Sc]
+21.9 +14.0 61 +25 +25 комфорт 1007.1 1005.2
03 18.06 В 5 10 км 9/0
[Ac As]
+21.4 +14.0 63 +24 +24 комфорт 1007.0 1005.2 +21.1
06 18.06 СВ 6
{11}
20 км 9/6 1000 м
[Sc Ac As]
+23.3 +13.8 55 +27 +27 душно 1007.2 1005.4
09 18.06 СВ 5
{10}
20 км 8/5 1000 м
[Sc Ac trans]
+24.8 +14.7 53 +27 +31 жарко 1007.8 1005.9
12 18.06 СВ 5
{10}
20 км 9/4 1000 м
[Sc Ac trans]
+25.5 +14.0 49 +28 +30 жарко 1007.9 1006.1
15 18.06 С 2
{10}
20 км 8/3 1000 м
[Sc Ac trans Cs]
+25.7 +15.2 52 +29 +30 душно 1007.5 1005.7 +26.5
18 18.06 В 2 10 км 4/0
[Ci fib]
+22.9 +17.6 72 +28 +28 душно 1008.4 1006.5
21 18.06 В 2 10 км 3/0
[Ci fib]
+23.1 +16.5 66 +28 +28 душно 1009.4 1007.5
00 19.06 С 1 10 км ясно +22.6 +16.4 68 +27 +27 душно 1009.3 1007.4
03 19.06 В 3 20 км ясно +20.0 +14.6 71 +22 +23 комфорт 1010.6 1008.7 +19.4
06 19.06 СВ 4 20 км ясно +24.4 +14.1 53 +27 +34 жарко 1011.7 1009.8
09 19.06 СВ 5
{10}
20 км ясно +26.3 +15.2 50 +29 +39 жарко 1012.0 1010.2
12 19.06 С 2 20 км ясно +27.8 +18.4 57 +33 +47 очень
душно
1011.9 1010.1
15 19.06 С 1 20 км ясно +27.0 +17.2 55 +31 +35 душно 1011.6 1009.8 +29.8
18 19.06 С 1 10 км ясно +24.8 +14.1 51 +27 +27 жарко 1012.2 1010.4
21 19.06 СВ 1 10 км ясно +23.9 +14.6 56 +27 +27 жарко 1012.9 1011.1
00 20.06 ЮЗ 1 10 км ясно +20.8 +13.8 64 +25 +25 комфорт 1013.6 1011.7
03 20.06 штиль 0 20 км ясно +23.6 +16.1 63 +27 +28 жарко 1014.3 1012.5 +20.0
06 20.06 С 1 20 км ясно +28.1 +17.4 52 +32 +44 душно 1014.8 1013.0
09 20.06 С 1 20 км ясно +29.7 +19.1 53 +35 +57 опасность
солнечного
удара
1015.1 1013.3
12 20.06 С 2 20 км ясно +28.5 +19.8 59 +34 +49 очень
душно
1014.9 1013.1
15 20.06 С 2 20 км 1/0
[Ci fib]
+27.0 +19.4 63 +33 +36 очень
душно
1014.3 1012.4 +31.2
18 20.06 В 1 10 км 1/0
[Ci fib]
+23.2 +15.7 63 +28 +28 душно 1014.2 1012.4
21 20.06 Ю 2 10 км ясно +20.0 +14.1 69 +23 +23 комфорт 1014.9 1013.0

 

Местоположение метеостанции Тамань (Краснодарский край, Россия): широта 45.22 долгота 36.72 высота над уровнем моря 17 м.

В архиве по умолчанию представлена погода в Тамани за последнюю неделю. Архивные данные за месяц целиком и за предыдущие месяцы, начиная с января 2011 года, Вы можете получить, выбрав интересующий диапазон дат из раскрывающегося списка и нажав кнопку "Ввод!".


*Определитесь, кто Вы:
робот инопланетянин человек

Внимание! Время в таблицах - всемирное. Для получения местного времени необходимо прибавить поправку, которая в Тамани равна 3 ч.

Смотрите также архив погоды в соседних городах и на ближайших метеорологических станциях:

Погода в Опасном (Крым, Россия) (18 км)
Погода в Керчи (Крым, Россия) (28 км)
Погода в Темрюке (Краснодарский край, Россия) (53 км)
Погода в Анапе (Краснодарский край, Россия) (58 км)
Погода на Мысовом (Крым, Россия) (75 км)
Погода в Новороссийске (Краснодарский край, Россия) (105 км)
Погода в Владиславовке (Крым, Россия) (105 км)
Погода в Крымске (Краснодарский край, Россия) (106 км)
Погода в Феодосии (Крым, Россия) (107 км)
Погода в Славянске-на-Кубани (Краснодарский край, Россия) (110 км)

Пояснения к столбцам:

Ветер - указаны скорость ветра в м/с - средняя за 10 мин, порывы в срок и между сроками (в фигурных скобках) и направление, откуда дует ветер: С - северный, СВ - северо-восточный, В - восточный, ЮВ - юго-восточный, Ю - южный, ЮЗ - юго-западный, З - западный, СЗ - северо-западный.
Видимость - горизонтальная дальность видимости в метрах или километрах. При видимости от 1 до 10 км при отсутствии осадков обычно наблюдается дымка, при ухудшении видимости до 1 км и менее - туман. В сухую погоду видимость может ухудшаться дымом, пылью или мглою.
Явления - указаны атмосферные явления, наблюдавшиеся в срок или в последний час перед сроком; фигурными скобками обозначены явления, наблюдавшиеся между сроками (за 1-3 часа до срока); квадратными скобками обозначены град или гололедные отложения с указанием их диаметра в мм.
Облачность - указаны через наклонную черту общая и нижняя облачность в баллах и высота нижней границы облаков в метрах; квадратными скобками обозначены формы облаков: Ci - перистые, Cs - перисто-слоистые, Cc - перисто-кучевые, Ac - высококучевые, As - высокослоистые, Sc - слоисто-кучевые, Ns - слоисто-дождевые, Cu - кучевые, Cb - кучево-дождевые. Подробнее классификацию облаков см. в Атласе облаков (PDF).
T - Температура воздуха - температура, измеренная на высоте 2 м над землей.
Td - Температура точки росы - температура, при понижении до которой содержащийся в воздухе водяной пар достигнет насыщения.
f - Относительная влажность воздуха - влажноcть воздуха, измеренная на высоте 2 м над землей.
Te - Эффективная температура - температура, которую ощущает одетый по сезону человек в тени. Характеристика душности погоды. При расчете учитывается влияние влажности воздуха и скорости ветра на теплоощущения человека.
Tes - Эффективная температура на солнце - температура, которую ощущает человек, с поправкой на солнечный нагрев. Характеристика знойности погоды. Зависит от высоты солнца над горизонтом, облачности и скорости ветра. Ночью, в пасмурную погоду, а также при ветре 12 м/с и более поправка равна нулю.
P - Атмосферное давление - приведенное к уровню моря атмосферное давление.
Po - Атмосферное давление - измеренное на уровне метеостанции атмосферное давление.
Tmin - Минимальная температура - минимум температуры воздуха на высоте 2 м над землей.
Tmax - Максимальная температура - максимум температуры воздуха на высоте 2 м над землей.
R - Количество осадков - Количество выпавших осадков за период времени, мм. При наведении курсора мыши на число - период времени, за который выпало указанное количество осадков.
R24 - Количество осадков - Количество выпавших осадков за 24 часа, мм.
S - Снежный покров - Высота снежного покрова, см. При наведении курсора мыши на число - состояние снежного покрова и степень покрытия местности в баллах.